Location: Gadern
(49.5873°N, 8.8138°E)
Time: 20:41:24
(UTC+00:00)

Cosmos 1980 Rocket - Pass Details

Date: 19 May 2025
Orbit: 829 x 847 km, 71.0° (Epoch: 20 June)

Event Time Altitude Azimuth Distance (km) Brightness Sun altitude
Rises 20:45:30 0° 332° (NNW) 3,383 7.3 -12.4°
Reaches altitude 10° 20:47:58 10° 336° (NNW) 2,446 6.0 -12.6°
Maximum altitude 20:53:32 64° 57° (ENE) 924 2.4 -13.1°
Enters shadow 20:57:35 19° 135° (SE) 1,888 3.4 -13.5°
